Regional Weather Roundup
Issued by NWS

Home | Current Version | Previous Version | Graphics & Text | Print | Product List | Glossary On
Versions: 1 2 3 4 5 6 7 8 9 10 11 12 13 14 15 16 17 18 19 20 21 22 23 24 25 26 27 28 29 30 31 32 33 34 35 36 37 38 39 40 41 42 43 44 45 46 47 48 49 50
652
ASUS45 KABQ 250401
RWRNM
NEW MEXICO REGIONAL WEATHER ROUNDUP
NATIONAL WEATHER SERVICE ALBUQUERQUE NM
900 PM MST SAT FEB 24 2018

NOTE: "FAIR" MEANS FEW OR NO CLOUDS BELOW 12,000 FEET AGL WITH NO
       SIGNIFICANT WEATHER OR OBSTRUCTIONS TO VISION.

      THIS PRODUCT IS RELEASED AS TWO VERSIONS.  ONE VERSION NEAR
      THE TOP OF THE HOUR CONTAINING PRELIMINARY DATA FROM ALBUQUERQUE
      AND OTHER STATIONS.  A FINAL VERSION WITH ADDITIONAL DATA IS
      ISSUED ABOUT 10 MINUTES AFTER THE HOUR.

NMZ501-503-504-510>518-250500-
NORTHWEST PLATEAU/NORTHCENTRAL MOUNTAINS

CITY           SKY/WX    TMP DP  RH WIND       PRES   REMARKS
FARMINGTON     MOCLDY    27   6  41 NE5       29.96S WCI  22
LOS ALAMOS     FAIR      27   9  45 CALM      29.98R
SANTA FE       FAIR      23   6  48 CALM      29.98S
TAOS           FAIR      22   7  52 SE8       29.99S WCI  12
ANGEL FIRE     FAIR      17   2  52 SW12      29.94R WCI   4

$$
NMZ402-403-502-505>509-250500-
WESTCENTRAL MOUNTAINS/SOUTHWEST MOUNTAINS

CITY           SKY/WX    TMP DP  RH WIND       PRES   REMARKS
GALLUP         FAIR      23  11  60 CALM      30.00R
GRANTS         FAIR      22   8  53 E3        30.01F
SILVER CITY    FAIR      33  10  38 NW7       30.08S WCI  27

$$
NMZ407-409-411-412-250500-
SOUTHERN DESERTS

CITY           SKY/WX    TMP DP  RH WIND       PRES   REMARKS
DEMING         FAIR      42   5  21 W14       30.08S
LAS CRUCES     FAIR      41   6  24 SW5       30.08S
ALAMOGORDO     FAIR      37   7  28 SE5       30.06S WCI  34
T OR C         FAIR      40  10  29 NW5       30.01R

$$
NMZ519>523-250500-
CENTRAL VALLEYS/CENTRAL HIGHLANDS

CITY           SKY/WX    TMP DP  RH WIND       PRES   REMARKS
ALBUQUERQUE    FAIR      36   9  32 S7        30.03S WCI  30
DOUBLE EAGLE   CLEAR     30   9  40 W12       30.01F WCI  21
MORIARTY ARPT  FAIR      29   7  38 CALM      30.01F
CLINES CORNERS NOT AVBL
BELEN          FAIR      32   5  32 SW6       30.02F WCI  26
SOCORRO        FAIR      35   5  28 NW5       30.03F WCI  31

$$
NMZ524>526-539-540-250500-
SOUTHCENTRAL MOUNTAINS

CITY           SKY/WX    TMP DP  RH WIND       PRES   REMARKS
RUIDOSO        FAIR      28   0  29 S7        30.03R WCI  21

$$
NMZ527>531-250500-
NORTHEAST HIGHLANDS/NORTHEAST PLAINS

CITY           SKY/WX    TMP DP  RH WIND       PRES   REMARKS
LAS VEGAS      FAIR      27   0  31 SW8       29.91F WCI  19
RATON          FAIR      31  -6  20 SW17      29.85R WCI  19
CLAYTON        FAIR      33  -3  21 W16       29.86R WCI  23

$$
NMZ532>537-250500-
EASTCENTRAL PLAINS

CITY           SKY/WX    TMP DP  RH WIND       PRES   REMARKS
SANTA ROSA     FAIR      33   4  29 W8        29.96S WCI  26
TUCUMCARI      FAIR      42   2  18 W14       29.92R
CANNON AFB     NOT AVBL
CLOVIS AIRPORT FAIR      38   1  21 W15       29.99R WCI  29

$$
NMZ028-029-538-250500-
SOUTHEAST PLAINS

CITY           SKY/WX    TMP DP  RH WIND       PRES   REMARKS
ROSWELL        FAIR      39   7  26 SE9       29.99S WCI  33
ARTESIA        FAIR      39   5  24 S7        30.02S WCI  34
CARLSBAD       FAIR      39   2  21 SW5       30.01S
HOBBS          FAIR      36   1  23 N5        30.03R WCI  32


$$




USA.gov is the U.S. government's official web portal to all federal, state and local government web resources and services.